Wind_Speed
7 10 11 9 3 21 16 18 19 17 20 22 23 21 22 26 26 29 32 24 16 16 36 25 24 26 24 21 19 16 16 12 9 16 17 20 17 19 19 19 18 21 21 20 24 26 28 30 27
11 13 13 10 13 17 17 15 16 20 21 23 24 23 21 14 28 32 33 20 9 30 38 26 24 27 17 21 15 24 16 14 5 16 16 14 13 17 17 16 18 19 17 22 28 31 33 35 32
6 8 10 14 16 16 14 17 19 21 23 24 26 26 22 24 27 33 32 17 5 42 38 28 33 27 21 28 13 16 10 3 4 8 9 13 10 15 13 14 17 18 18 25 31 36 36 36 34
9 11 12 13 15 17 18 19 21 21 23 24 26 25 22 26 28 31 31 15 6 35 41 34 37 28 20 26 27 10 5 2 4 7 10 10 9 13 11 16 19 19 24 29 32 37 39 39 41
11 15 17 19 20 21 23 25 25 24 23 24 24 24 21 26 29 32 30 14 8 20 47 35 34 33 26 20 14 13 7 12 7 12 10 4 7 10 10 17 21 23 25 27 30 36 41 38 37
20 19 20 27 23 26 29 31 31 28 25 23 23 22 22 24 27 31 29 13 7 14 47 43 34 39 37 34 32 25 27 20 11 10 5 5 7 7 7 10 20 20 25 25 31 37 41 45 44
24 22 24 31 32 33 34 33 32 28 25 22 22 22 19 22 26 30 24 14 6 12 36 44 35 30 30 23 32 30 28 28 21 10 6 2 7 5 6 6 11 20 24 26 34 35 44 50 49
30 28 28 22 29 36 36 35 31 27 24 20 20 19 18 19 23 27 20 13 6 12 4 43 37 28 21 13 12 14 16 12 12 7 6 3 6 5 5 6 9 15 22 28 34 32 30 38 47
35 34 35 39 37 18 35 34 30 25 21 19 17 16 14 18 21 23 18 8 4 14 30 38 43 31 29 16 10 8 10 12 7 8 5 4 6 5 6 7 11 14 19 28 30 28 36 32 36
36 35 34 34 31 35 33 32 30 26 22 21 16 12 13 14 15 21 17 5 1 13 20 24 43 18 29 32 18 7 8 14 11 7 4 1 2 4 5 7 10 12 16 23 31 31 33 34 31
32 32 33 32 33 34 34 33 29 25 19 24 17 12 12 11 13 17 15 4 3 16 20 26 35 40 25 19 25 17 16 15 12 9 4 6 5 1 6 10 10 11 14 20 28 32 26 37 33
30 30 28 28 27 24 21 23 24 23 20 23 16 13 12 12 9 13 11 5 4 17 21 36 15 35 22 27 23 16 23 17 11 12 7 7 3 6 8 13 12 12 15 11 18 21 16 18 19
21 20 18 16 14 14 12 14 18 22 23 21 16 13 11 9 5 8 6 5 6 13 22 27 23 37 32 34 23 22 23 15 14 13 13 8 4 7 8 18 15 16 14 11 18 17 25 29 25
14 14 12 11 11 9 6 9 15 19 22 20 18 14 13 7 3 5 7 2 2 10 19 25 27 34 35 36 33 26 21 17 16 11 4 9 8 7 6 15 17 11 14 9 9 12 18 22 24
13 10 7 5 15 9 7 8 12 15 17 19 17 13 14 10 6 4 7 2 1 8 15 22 28 37 34 33 38 33 25 14 15 14 8 12 9 6 7 10 15 12 9 2 8 8 10 13 14
14 10 8 14 14 11 14 5 6 10 12 14 16 20 15 8 8 6 4 4 3 1 11 14 28 35 34 31 31 31 22 15 21 18 15 14 11 7 2 5 9 8 12 7 3 3 5 7 12
5 6 5 9 8 11 12 9 5 5 19 19 21 21 15 8 12 8 5 2 4 2 10 23 31 33 34 33 28 25 24 20 17 19 18 20 14 8 3 5 7 8 5 5 4 2 8 6 7
4 3 5 6 6 5 8 10 7 14 13 16 20 16 20 19 11 14 10 7 1 8 7 26 29 33 38 37 27 23 29 26 22 24 23 12 11 9 7 8 8 6 6 8 9 9 9 10 9
4 3 2 3 5 5 5 9 11 11 16 16 20 20 26 26 20 15 13 10 6 7 13 15 26 32 38 34 28 24 22 25 26 27 22 20 16 13 11 12 9 5 7 7 6 6 11 15 12
6 5 4 4 4 5 6 5 9 16 13 11 13 20 20 24 21 17 14 12 9 6 14 19 22 23 34 32 29 25 26 24 25 24 22 24 21 19 16 19 17 14 8 8 10 8 6 13 14
11 13 10 9 8 7 7 7 7 9 14 13 14 13 19 24 27 22 17 15 13 9 7 20 24 24 26 31 32 27 23 32 28 26 25 27 23 21 23 24 23 21 20 15 13 11 11 9 15
15 16 15 14 14 13 11 9 7 8 10 12 15 17 17 16 17 17 18 19 18 14 11 10 20 27 28 30 34 36 33 28 28 27 25 26 31 29 26 29 29 26 24 22 20 11 11 10 16
19 19 19 18 17 15 15 15 12 9 10 10 13 20 20 18 22 19 20 21 23 22 18 16 14 18 27 31 32 35 39 40 35 33 32 30 34 35 32 26 27 26 21 27 23 22 16 14 16
25 25 25 25 23 24 20 20 19 14 14 14 12 15 20 24 23 22 23 24 24 25 23 22 21 18 18 19 22 27 34 32 32 31 32 34 32 37 36 33 31 29 25 24 22 23 22 25 20
27 26 27 29 28 31 26 24 27 18 20 19 17 16 17 19 25 26 24 25 25 25 27 26 27 24 21 20 18 15 16 23 23 21 21 23 32 32 35 37 34 33 31 29 30 28 27 28 27
31 30 29 30 30 32 33 31 32 25 22 23 23 20 21 20 20 26 27 27 28 28 30 29 31 31 25 23 21 20 19 19 16 14 13 13 12 16 31 37 33 28 33 32 35 35 36 35 33
32 34 33 32 32 32 33 31 28 28 22 22 23 24 24 26 26 24 24 31 28 34 35 31 34 34 35 29 26 25 26 26 22 20 17 15 14 14 12 26 30 27 25 27 30 36 39 40 42
35 35 36 37 36 37 39 38 37 32 27 28 29 26 25 24 31 29 28 25 28 32 34 37 35 36 39 35 30 30 29 29 28 27 26 23 19 15 11 6 14 16 19 19 21 29 35 38 45
40 40 40 39 39 38 39 42 40 45 40 37 39 35 33 30 34 30 33 33 30 27 32 36 38 39 37 41 38 37 37 35 32 31 31 31 25 20 15 12 13 14 12 17 18 18 20 26 30
45 44 44 43 45 42 41 46 49 49 44 43 44 45 41 37 39 36 35 34 36 34 33 33 36 41 40 40 40 40 38 41 39 33 30 30 29 28 24 21 21 19 11 13 17 16 18 20 17
Wind_Direction
205 196 204 243 210 268 285 291 303 313 320 322 327 328 327 328 327 326 325 304 281 228 179 181 178 193 197 237 236 206 222 219 289 325 334 328 328 343 351 357 358 358 6 13 14 20 28 29 34
230 224 237 235 282 268 274 288 304 313 316 321 323 332 330 335 325 330 332 309 265 186 176 180 185 185 201 221 210 209 227 243 303 289 307 339 340 355 8 3 5 16 21 25 33 32 38 38 41
237 237 238 243 242 278 283 301 309 313 319 319 322 329 328 325 330 331 337 318 238 180 183 166 181 181 199 209 191 182 155 133 292 301 335 341 0 11 17 19 33 27 37 39 37 43 48 47 49
257 266 273 274 277 284 295 301 306 310 313 317 319 327 324 327 332 334 336 330 246 194 188 175 186 189 194 208 225 182 200 179 284 311 327 328 16 19 38 50 46 35 42 42 43 47 50 51 50
283 282 286 289 286 285 287 293 299 303 309 314 315 322 323 329 334 334 336 330 252 202 192 189 175 191 190 172 185 207 238 245 267 312 323 329 25 35 76 61 49 43 45 49 47 52 52 50 54
275 280 287 288 276 286 290 296 301 307 307 309 310 319 321 326 333 331 335 325 253 194 192 181 183 203 214 217 228 244 253 243 233 287 335 334 35 55 111 64 49 46 49 56 55 54 58 53 52
273 283 293 275 282 286 290 294 298 302 301 303 304 314 319 325 333 332 336 333 240 183 197 203 182 195 212 237 236 236 249 250 245 265 269 338 52 67 130 86 51 41 60 62 60 58 67 54 45
272 273 260 260 282 286 286 289 294 294 292 295 297 304 314 320 333 337 341 340 179 151 271 217 182 178 152 183 209 222 225 195 212 231 237 53 60 69 143 100 70 44 65 64 61 52 48 46 35
274 274 271 271 282 299 283 284 285 284 290 286 290 296 305 318 332 343 347 352 156 170 183 206 201 201 204 183 167 167 195 177 181 201 197 51 39 74 154 109 76 58 73 66 61 44 37 57 51
279 278 276 274 272 271 277 280 278 278 281 283 279 289 287 314 334 345 356 356 219 176 170 168 178 186 189 196 213 209 212 173 198 180 150 337 27 86 172 119 78 70 90 76 70 51 53 49 32
278 277 276 276 275 273 276 274 275 270 268 269 265 255 264 308 335 348 1 21 163 173 170 147 191 196 196 179 199 210 204 181 204 159 263 181 131 161 175 118 87 91 101 72 70 69 62 66 73
281 282 282 283 284 285 285 277 261 251 251 246 242 236 248 297 339 353 8 13 174 187 181 165 184 192 187 187 199 205 181 182 174 162 184 206 191 205 172 128 102 107 111 72 42 59 64 46 71
282 281 282 287 292 292 285 270 252 239 236 237 227 228 240 280 333 16 14 14 195 180 191 198 183 186 188 186 181 188 169 181 189 201 209 221 161 187 169 129 115 114 109 101 74 64 64 77 74
282 281 299 307 293 285 284 309 276 234 231 232 211 235 239 252 276 9 45 11 218 199 200 207 199 190 197 195 204 202 188 181 194 220 223 228 181 176 156 141 154 113 86 98 91 75 68 62 61
283 291 304 352 275 268 235 327 331 242 218 225 218 231 235 226 242 314 16 142 350 208 201 204 203 197 202 196 209 213 188 181 206 183 178 180 150 164 170 134 162 187 185 97 74 79 55 67 75
287 284 258 207 263 239 260 286 273 231 207 205 231 227 221 239 247 265 332 30 166 167 187 199 190 182 184 195 190 190 189 213 203 205 200 223 165 164 349 164 143 150 178 186 102 84 69 64 67
276 283 245 272 265 254 254 274 254 242 204 206 218 218 210 187 248 261 264 326 204 159 171 174 169 175 183 187 177 190 204 202 193 197 211 226 185 178 142 187 158 161 168 191 195 190 170 134 113
249 258 280 295 291 279 269 259 244 211 216 230 221 220 228 234 252 227 235 272 219 185 169 180 188 181 182 171 173 198 199 204 220 214 214 226 220 208 180 177 138 132 187 210 197 184 178 193 159
233 231 255 340 341 334 295 261 252 242 233 227 214 221 220 231 230 233 208 229 265 187 186 185 188 202 193 182 196 202 211 215 219 222 231 239 236 236 202 206 189 177 202 228 267 250 181 203 197
249 260 251 271 303 314 316 304 259 247 254 240 226 230 232 225 241 256 225 219 240 208 192 184 197 197 206 201 190 213 222 225 228 237 240 245 240 243 229 225 236 248 235 244 261 256 243 224 219
261 269 268 271 277 284 294 301 300 285 268 255 233 240 228 227 238 250 232 220 233 231 197 198 197 204 201 210 204 214 212 216 229 232 233 231 233 241 244 245 244 247 246 248 263 252 248 250 244
262 268 277 276 274 270 267 270 282 295 293 267 246 239 230 217 228 225 225 221 230 227 216 202 206 203 208 213 218 222 227 223 228 231 236 234 237 244 240 242 243 250 247 246 251 264 269 273 255
262 267 275 277 277 276 276 269 263 259 272 276 264 245 240 239 238 232 218 224 229 217 221 216 216 215 218 221 224 230 235 237 243 245 244 243 241 241 243 243 234 245 237 248 252 251 263 270 268
264 266 269 273 275 274 274 276 270 257 254 256 257 263 250 239 232 236 223 220 222 233 220 230 222 218 222 228 228 232 233 235 239 245 248 252 247 242 243 245 244 240 236 243 250 253 250 253 256
273 271 272 277 278 274 274 274 274 256 259 253 249 250 261 256 238 230 232 222 224 224 235 230 229 226 224 228 231 229 228 236 239 241 246 247 245 246 246 248 248 244 244 246 255 258 257 261 258
268 267 267 269 273 275 273 268 267 265 249 252 252 241 247 253 256 242 233 233 227 227 234 230 231 234 229 227 229 232 226 220 231 240 245 238 255 258 245 244 250 251 248 252 253 259 259 262 261
263 266 269 269 269 273 272 270 261 257 245 251 256 254 243 246 249 254 242 241 238 231 231 239 240 238 238 230 232 234 233 232 232 235 240 249 273 286 274 236 233 241 244 250 257 258 260 259 259
263 267 270 270 271 270 269 267 261 264 256 257 258 257 255 249 250 245 249 245 239 237 237 237 238 238 237 238 242 243 243 237 240 244 246 249 255 262 284 249 221 231 241 235 253 258 258 257 257
265 269 271 272 271 270 268 267 268 263 261 256 260 251 253 254 255 248 248 249 248 243 239 240 240 240 235 238 246 249 247 244 243 247 248 249 254 258 257 254 255 226 235 255 263 275 268 260 259
267 268 268 269 271 268 269 271 270 265 261 263 259 259 255 255 255 253 251 249 249 248 247 242 243 241 241 243 239 242 250 246 244 245 247 252 248 249 250 253 255 256 263 264 266 276 280 281 281
Height
11001 11002 11004 11005 11009 11008 11002 11000 10998 10996 10994 10990 10987 10986 10982 10978 10974 10972 10966 10961 10958 10959 10963 10970 10974 10979 10985 10988 10988 10991 10994 10994 10995 10997 10997 10996 10995 10995 10994 10990 10987 10982 10979 10976 10973 10966 10958 10951 10947
10999 11001 11003 11005 11005 11004 11001 10999 10996 10994 10992 10988 10985 10984 10979 10977 10972 10967 10962 10957 10954 10957 10962 10968 10973 10978 10982 10985 10987 10990 10992 10995 10995 10997 10999 10997 10997 10996 10994 10992 10988 10985 10983 10981 10977 10970 10961 10955 10949
10999 11000 11001 11002 11003 11001 10999 10997 10995 10992 10988 10986 10982 10978 10977 10973 10970 10964 10960 10954 10952 10955 10961 10966 10971 10975 10978 10983 10985 10988 10992 10992 10995 10998 10997 10998 10999 10997 10996 10994 10991 10988 10986 10984 10980 10974 10964 10956 10950
10998 10998 10999 10999 10999 10997 10996 10995 10993 10990 10987 10984 10980 10978 10974 10971 10967 10963 10956 10952 10952 10955 10960 10965 10969 10974 10978 10981 10984 10986 10990 10992 10995 10997 10997 10998 11000 10999 10998 10996 10994 10992 10990 10987 10984 10977 10967 10958 10955
10995 10996 10995 10995 10995 10994 10992 10991 10990 10988 10985 10982 10980 10976 10972 10968 10965 10959 10956 10953 10952 10953 10959 10965 10969 10972 10975 10977 10980 10985 10989 10992 10996 10997 10998 11000 11001 11001 11001 10998 10997 10996 10993 10991 10987 10980 10972 10963 10961
10992 10994 10996 10990 10990 10989 10987 10987 10985 10984 10981 10979 10977 10974 10970 10967 10964 10958 10955 10952 10951 10952 10958 10963 10968 10971 10974 10979 10982 10987 10989 10992 10997 10998 11000 11002 11003 11003 11002 11001 11000 11000 10997 10994 10991 10983 10976 10972 10966
10991 10994 10991 10989 10985 10984 10982 10982 10981 10980 10978 10977 10975 10971 10969 10966 10964 10959 10954 10951 10952 10954 10961 10963 10968 10972 10975 10979 10984 10987 10990 10992 10997 11000 11002 11004 11004 11005 11004 11004 11003 11003 11000 10996 10993 10987 10981 10977 10974
10987 10992 10989 10984 10982 10978 10977 10977 10978 10975 10975 10975 10973 10971 10967 10965 10963 10960 10954 10950 10952 10960 10956 10969 10969 10971 10975 10980 10983 10986 10988 10991 10997 11001 11004 11005 11007 11007 11007 11007 11006 11006 11003 10999 10996 10990 10987 10987 10985
10981 10982 10981 10979 10977 10971 10972 10972 10972 10971 10971 10971 10971 10968 10967 10964 10962 10960 10955 10950 10951 10956 10960 10963 10970 10970 10973 10981 10984 10986 10990 10994 10998 11002 11005 11008 11009 11009 11010 11011 11009 11009 11006 11001 10998 10993 10989 10986 10985
10973 10972 10971 10971 10971 10969 10968 10967 10967 10967 10968 10968 10968 10968 10966 10965 10963 10960 10955 10951 10950 10952 10955 10957 10964 10978 10975 10979 10983 10986 10991 10995 10998 11003 11006 11005 11006 11010 11012 11014 11012 11010 11005 11002 11001 10999 10992 10981 10984
10967 10965 10964 10965 10964 10964 10964 10963 10962 10963 10967 10962 10965 10966 10965 10965 10962 10960 10956 10952 10952 10953 10954 10960 10967 10973 10976 10978 10982 10987 10993 10995 11000 11004 11005 11002 11001 11011 11015 11016 11014 11009 11006 11005 11005 11005 11002 10994 10992
10960 10958 10957 10956 10957 10958 10956 10955 10955 10956 10959 10959 10961 10962 10964 10962 10962 10960 10957 10953 10953 10955 10958 10961 10964 10970 10975 10978 10982 10987 10993 10995 11000 11006 11007 11005 11006 11013 11016 11018 11017 11011 11008 11006 11006 11009 11007 11006 11006
10953 10951 10951 10952 10952 10949 10948 10946 10946 10949 10953 10956 10958 10959 10961 10961 10961 10960 10958 10956 10954 10956 10959 10961 10965 10968 10972 10979 10981 10988 10993 10995 11000 11005 11008 11009 11012 11015 11018 11019 11020 11015 11011 11011 11009 11010 11011 11006 11005
10947 10947 10951 10953 10950 10946 10945 10945 10943 10942 10948 10953 10955 10957 10959 10959 10960 10960 10958 10957 10955 10955 10957 10959 10962 10965 10970 10976 10981 10987 10991 10996 11000 11004 11008 11010 11013 11016 11017 11019 11021 11019 11015 11013 11013 11011 11010 11009 11008
10943 10946 10949 10945 10947 10945 10942 10941 10942 10939 10944 10950 10953 10955 10956 10957 10959 10960 10959 10958 10956 10955 10955 10957 10960 10965 10970 10975 10981 10987 10990 10995 10999 11003 11006 11008 11011 11014 11016 11017 11020 11020 11019 11016 11015 11014 11014 11014 11017
10940 10942 10944 10945 10943 10942 10939 10940 10939 10940 10942 10947 10951 10953 10955 10954 10957 10959 10959 10958 10958 10956 10955 10954 10956 10963 10970 10975 10981 10985 10991 10995 10997 11001 11004 11008 11009 11012 11015 11015 11016 11018 11019 11019 11017 11017 11017 11017 11016
10938 10937 10939 10939 10939 10937 10935 10937 10938 10939 10942 10946 10948 10951 10953 10955 10957 10957 10959 10960 10958 10958 10958 10958 10960 10965 10970 10975 10981 10986 10989 10994 10997 11000 11003 11005 11008 11012 11014 11013 11014 11017 11019 11018 11018 11021 11022 11020 11018
10938 10937 10936 10936 10936 10935 10934 10935 10937 10939 10940 10942 10945 10948 10950 10952 10955 10956 10958 10957 10959 10960 10961 10963 10965 10968 10970 10976 10981 10985 10988 10992 10994 10997 11001 11003 11006 11010 11012 11012 11014 11017 11016 11017 11018 11020 11025 11021 11020
10936 10936 10935 10935 10935 10935 10936 10936 10936 10936 10938 10940 10941 10943 10946 10949 10952 10954 10956 10957 10958 10959 10960 10963 10966 10968 10971 10976 10979 10982 10985 10989 10992 10995 10998 11002 11005 11008 11010 11010 11013 11015 11015 11012 11018 11023 11026 11024 11021
10934 10935 10935 10935 10935 10934 10934 10934 10934 10934 10935 10936 10938 10940 10943 10947 10950 10952 10954 10956 10958 10958 10958 10961 10963 10967 10970 10974 10977 10980 10983 10987 10990 10993 10996 11000 11002 11005 11006 11008 11010 11013 11015 11014 11016 11019 11024 11024 11022
10932 10932 10933 10934 10934 10933 10933 10932 10932 10932 10932 10934 10935 10938 10941 10944 10946 10948 10951 10954 10956 10957 10958 10960 10961 10963 10966 10970 10974 10977 10980 10984 10987 10990 10993 10997 11000 11002 11003 11004 11005 11010 11012 11013 11013 11015 11019 11020 11021
10928 10928 10929 10930 10931 10931 10931 10931 10931 10931 10931 10931 10933 10935 10936 10940 10942 10945 10948 10951 10954 10956 10957 10959 10961 10963 10964 10967 10970 10974 10977 10980 10983 10987 10990 10993 10996 10998 10999 11000 11001 11005 11007 11010 11011 11013 11014 11015 11019
10923 10924 10924 10925 10926 10927 10928 10929 10930 10931 10931 10930 10930 10931 10933 10936 10939 10941 10944 10948 10950 10954 10956 10957 10959 10961 10964 10966 10968 10969 10972 10975 10978 10981 10984 10987 10989 10992 10995 10996 10998 11000 11004 11006 11008 11009 11010 11011 11017
10918 10919 10919 10919 10921 10921 10923 10924 10924 10928 10928 10928 10928 10928 10929 10931 10935 10938 10940 10943 10946 10949 10952 10955 10956 10958 10960 10962 10963 10965 10967 10970 10973 10976 10978 10980 10982 10985 10987 10991 10993 10995 11000 11002 11003 11005 11007 11011 11012
10913 10913 10913 10913 10914 10912 10916 10918 10917 10922 10922 10923 10925 10925 10925 10926 10928 10932 10936 10938 10941 10945 10949 10951 10953 10955 10957 10959 10960 10961 10964 10966 10969 10970 10971 10972 10976 10979 10981 10983 10987 10991 10994 10997 10999 11002 11003 11004 11006
10905 10906 10907 10907 10907 10907 10907 10910 10910 10913 10915 10917 10918 10920 10921 10922 10922 10925 10929 10933 10936 10939 10943 10946 10948 10951 10953 10955 10958 10959 10961 10963 10965 10966 10968 10969 10971 10972 10972 10976 10980 10983 10988 10990 10992 10992 10994 10996 10997
10899 10898 10899 10900 10900 10901 10900 10901 10902 10904 10910 10911 10912 10914 10916 10917 10917 10919 10922 10926 10930 10934 10937 10940 10944 10946 10948 10951 10953 10955 10957 10959 10961 10962 10964 10965 10967 10968 10968 10968 10974 10977 10980 10982 10985 10984 10985 10986 10987
10891 10891 10891 10891 10893 10893 10893 10892 10892 10898 10903 10904 10904 10907 10909 10912 10911 10914 10915 10919 10923 10927 10931 10934 10937 10939 10942 10945 10947 10950 10952 10954 10956 10958 10960 10962 10964 10966 10967 10967 10970 10972 10975 10976 10975 10974 10975 10975 10975
10883 10883 10883 10882 10883 10884 10884 10881 10888 10885 10892 10895 10895 10898 10901 10905 10904 10907 10909 10912 10915 10920 10923 10926 10928 10931 10934 10937 10940 10942 10946 10949 10951 10953 10955 10958 10961 10962 10964 10966 10968 10969 10969 10968 10970 10968 10968 10967 10966
10872 10872 10872 10874 10872 10874 10876 10872 10870 10872 10882 10884 10885 10887 10893 10898 10896 10899 10902 10905 10908 10911 10914 10916 10920 10923 10925 10928 10931 10934 10938 10941 10944 10946 10949 10951 10954 10957 10959 10960 10962 10963 10964 10964 10964 10963 10963 10962 10960